[[{"header":{"parameterUnit":"m.s-1","parameterCategory":2,"la1":30.2991,"la2":30.254,"lo1":-89.0895,"lo2":-89.0444,"dy":0.0017,"dx":0.0017,"nx":28,"ny":28,"refTime":"2023-09-24T21:00:00:Z","depth":"0","parameterNumber":2,"parameterNumberName":"U-component_of_CURRENTS"},"data":[0,0,0,0,0,0,0,0,0,0,0,0,0,0,0,0,0,0,0,0,0,0,0,0,0,0,0,0,0,0,0,0,0,0,0,0,0,0,0,0,0,0,0,0,0,0,0,0,0,0,0,0,0,0,0,0,0,0,0.1865,0.1866,0,0.1893,0.1893,0.1893,0.1897,0.1897,0.1897,0.1897,0.189,0.189,0.189,0,0,0,0,0,0,0,0,0,0,0,0,0,0.179,0.1791,0.1865,0.1866,0.1866,0.1893,0.1893,0.1893,0.1897,0.1897,0.1897,0.1897,0.189,0.189,0.189,0,0,0,0,0,0,0,0,0,0,0,0,0,0.1817,0.1791,0.1865,0.1874,0.1875,0.1893,0.1893,0.1893,0.1897,0.1897,0.1897,0.1897,0.189,0.189,0.189,0.1887,0,0,0.1889,0.1889,0,0,0,0,0,0,0,0,0.1816,0.182,0.1872,0.1873,0.1875,0.1894,0.1864,0.189,0.1897,0.1886,0.1897,0.1897,0.189,0.189,0.1891,0.1887,0.1886,0.1889,0.1889,0.1888,0.1888,0,0,0,0,0,0,0,0.1814,0.1819,0.1873,0.1873,0.1874,0.1867,0.1871,0.1869,0.1885,0.1887,0.1888,0.1896,0.189,0.1892,0.1891,0.1886,0.1889,0.1889,0.1888,0.1888,0.1877,0.1877,0,0,0,0,0,0,0.1818,0.1817,0.1872,0.1874,0.1848,0.1869,0.1873,0.1886,0.1885,0.1887,0.1896,0.1896,0.1892,0.1892,0.1891,0.1888,0.1888,0.1888,0.1888,0.1877,0.1877,0.1877,0,0,0,0,0,0,0.1816,0.1823,0.1871,0.1848,0.1854,0.1871,0.1884,0.1886,0.1891,0.1893,0.1893,0.1899,0.1892,0.1891,0.1889,0.1888,0.1888,0.1888,0.1877,0.1877,0.1877,0.1883,0,0,0,0,0,0,0.1814,0.1822,0.1828,0.1849,0.1856,0.1883,0.1885,0.1887,0.1897,0.1897,0.1896,0.1895,0.1892,0.1889,0.1889,0.1888,0.1888,0.1877,0.1877,0.1877,0.1883,0.1883,0.1883,0,0,0,0,0,0.1811,0.1819,0.1828,0.1835,0.1865,0.1883,0.1885,0.1895,0.1897,0.1899,0.1897,0.1895,0.1887,0.1889,0.1888,0.1887,0.1877,0.1877,0.1877,0.1883,0.1883,0.1883,0,0,0,0,0,0,0.178,0.1822,0.1831,0.1849,0.1866,0.1885,0.189,0.1896,0.1897,0.1897,0.1895,0.1894,0.189,0.1888,0.189,0.1883,0.1882,0.1881,0.1886,0.1886,0.1886,0.1886,0.1887,0,0,0,0,0,0.178,0.1803,0.1831,0.1845,0.1855,0.1873,0.188,0.1889,0.1897,0.1897,0.1895,0.1892,0.1888,0.1887,0.1882,0.188,0.1916,0.1878,0.1878,0.1878,0.1877,0.1894,0.1895,0.1876,0.1876,0.1876,0,0,0.1771,0.1797,0.1809,0.1841,0.1855,0.1869,0.1877,0.1892,0.1897,0.1896,0.1895,0.1892,0.1887,0.1883,0.1882,0.1882,0.192,0.1878,0.1878,0.1877,0.1894,0.1896,0.1898,0.1876,0.1876,0.1876,0,0,0.1768,0.179,0.1809,0.1826,0.1855,0.1866,0.1872,0.1891,0.1893,0.1896,0.1894,0.189,0.1887,0.1881,0.1879,0.1876,0.1917,0.1877,0.1879,0.1895,0.1897,0.1899,0.2024,0.2037,0.1878,0.1878,0.1878,0,0.1755,0.1786,0.1813,0.1834,0.1846,0.1865,0.1878,0.1883,0.1896,0.1894,0.1896,0.1889,0.1884,0.1879,0.1878,0.1876,0.1929,0.188,0.1896,0.1898,0.19,0.2027,0.2041,0.1879,0.1879,0.1879,0.1879,0,0.1771,0.179,0.1801,0.1837,0.185,0.1864,0.1881,0.1885,0.189,0.1893,0.189,0.1887,0.1885,0.1881,0.1879,0.1885,0.194,0.1894,0.1898,0.1902,0.2037,0.2052,0.1879,0.1879,0.1879,0.1879,0,0,0.1758,0.1803,0.1808,0.1816,0.1854,0.186,0.1873,0.1883,0.1886,0.1889,0.1896,0.1881,0.1885,0.1882,0.1881,0.1891,0.1973,0.1901,0.1902,0.2033,0.2099,0.2345,0.2385,0.1925,0.1926,0.1926,0.2218,0,0.1762,0.1791,0.1817,0.1829,0.1842,0.1861,0.1867,0.1876,0.1887,0.1896,0.1893,0.1902,0.1885,0.1897,0.1899,0.195,0.1998,0.1904,0.2069,0.2076,0.2296,0.2404,0.2452,0.2731,0.2232,0.2235,0.2236,0,0.1774,0.1791,0.1807,0.1823,0.1829,0.1835,0.185,0.1859,0.1878,0.1892,0.1902,0.1916,0.1956,0.1922,0.2032,0.1978,0.2041,0.208,0.209,0.2319,0.2346,0.2629,0.2776,0.2635,0.2259,0.2257,0.2255,0,0.1751,0.178,0.1787,0.1796,0.1819,0.182,0.183,0.1851,0.1878,0.1902,0.1953,0.1965,0.204,0.206,0.22,0.2104,0.236,0.2231,0.2525,0.2547,0.2623,0.2651,0.2651,0.2299,0.2298,0.2297,0.2296,0,0.1749,0.1749,0.1772,0.1774,0.1781,0.1798,0.1815,0.183,0.1879,0.196,0.1955,0.2067,0.2072,0.2231,0.2262,0.2535,0.2432,0.2584,0.2638,0.264,0.2665,0.2571,0.2444,0.2308,0.2306,0.2303,0.2302,0,0.1732,0.1741,0.175,0.1768,0.1773,0.1778,0.1832,0.1869,0.191,0.203,0.2061,0.2192,0.2432,0.2523,0.2657,0.2712,0.2821,0.2973,0.3058,0.3117,0.3211,0.3084,0.3083,0.2988,0.3309,0.3317,0.3324,0,0.1742,0.1747,0.1754,0.1785,0.1797,0.1815,0.1858,0.188,0.1964,0.2153,0.2252,0.2499,0.2733,0.3093,0.3235,0.3444,0.3168,0.3591,0.3382,0.3294,0.3187,0.2937,0.283,0.3508,0.3516,0.3522,0.3527,0,0.18,0.1789,0.1809,0.1868,0.1905,0.1932,0.2006,0.2057,0.2159,0.2287,0.256,0.275,0.3165,0.3438,0.3752,0.3845,0.3433,0.3731,0.3551,0.3312,0.3118,0.3029,0.33,0.3582,0.3576,0.3572,0.3569,0.3567,0.1886,0.1914,0.1975,0.2006,0.2049,0.2115,0.2133,0.2256,0.2397,0.2613,0.2793,0.31,0.3465,0.3924,0.4,0.4133,0.3888,0.4005,0.3866,0.3625,0.3494,0.3989,0.4374,0.4373,0.4372,0.4372,0.4371,0,0.2066,0.2096,0.2143,0.2191,0.2237,0.2223,0.2304,0.2337,0.2513,0.2763,0.3001,0.3476,0.3801,0.4015,0.4293,0.4221,0.3938,0.4092,0.363,0.3514,0.3916,0.3884,0.4287,0.4287,0.4287,0.4287,0.4288,0.4288,0.2197,0.228,0.2266,0.2381,0.2395,0.2432,0.2453,0.2513,0.2655,0.2957,0.3226,0.345,0.3761,0.4065,0.4113,0.4067,0.3624,0.3632,0.3411,0.3583,0.3556,0.353,0.3467,0.3776,0.3775,0.2926,0.2919,0.2914]},{"header":{"parameterUnit":"m.s-1","parameterCategory":2,"la1":30.2991,"la2":30.254,"lo1":-89.0895,"lo2":-89.0444,"dy":0.0017,"dx":0.0017,"nx":28,"ny":28,"refTime":"2023-09-24T21:00:00:Z","depth":"0","parameterNumber":3,"parameterNumberName":"V-component_of_CURRENTS"},"data":[0,0,0,0,0,0,0,0,0,0,0,0,0,0,0,0,0,0,0,0,0,0,0,0,0,0,0,0,0,0,0,0,0,0,0,0,0,0,0,0,0,0,0,0,0,0,0,0,0,0,0,0,0,0,0,0,0,0,-0.1027,-0.1028,0,-0.1111,-0.1112,-0.1112,-0.1131,-0.1131,-0.113,-0.113,-0.1227,-0.123,-0.1233,0,0,0,0,0,0,0,0,0,0,0,0,0,-0.094,-0.0941,-0.1027,-0.1028,-0.1029,-0.111,-0.1112,-0.1113,-0.1132,-0.1131,-0.113,-0.1129,-0.1226,-0.123,-0.1233,0,0,0,0,0,0,0,0,0,0,0,0,0,-0.0996,-0.0941,-0.1026,-0.1048,-0.105,-0.111,-0.1112,-0.1113,-0.1132,-0.1131,-0.113,-0.1129,-0.1225,-0.1229,-0.1234,-0.1282,0,0,-0.1248,-0.1251,0,0,0,0,0,0,0,0,-0.0993,-0.0999,-0.1044,-0.1046,-0.105,-0.1109,-0.1117,-0.117,-0.1132,-0.1101,-0.113,-0.1129,-0.1189,-0.1197,-0.1215,-0.1286,-0.129,-0.1249,-0.1252,-0.1254,-0.1255,0,0,0,0,0,0,0,-0.0989,-0.0996,-0.106,-0.1045,-0.1048,-0.1073,-0.1079,-0.1127,-0.115,-0.1104,-0.1105,-0.1115,-0.1191,-0.121,-0.1217,-0.1292,-0.1249,-0.1253,-0.1256,-0.1258,-0.1419,-0.142,0,0,0,0,0,0,-0.0976,-0.0992,-0.1057,-0.1063,-0.1018,-0.1075,-0.1082,-0.1091,-0.1149,-0.1157,-0.1115,-0.1115,-0.1203,-0.1212,-0.1221,-0.1284,-0.1254,-0.1258,-0.1261,-0.1417,-0.1419,-0.1421,0,0,0,0,0,0,-0.0974,-0.0981,-0.1054,-0.1029,-0.104,-0.1077,-0.1087,-0.1093,-0.1115,-0.1158,-0.1165,-0.113,-0.1202,-0.1214,-0.1274,-0.1287,-0.126,-0.1265,-0.1416,-0.1418,-0.142,-0.1407,0,0,0,0,0,0,-0.0971,-0.098,-0.0988,-0.1028,-0.1041,-0.1095,-0.1088,-0.1096,-0.1122,-0.1122,-0.1174,-0.1181,-0.1203,-0.1267,-0.1279,-0.1293,-0.1268,-0.1414,-0.1417,-0.1419,-0.1406,-0.1409,-0.1411,0,0,0,0,0,-0.0968,-0.0986,-0.0988,-0.0996,-0.1048,-0.1096,-0.1106,-0.1129,-0.1123,-0.1142,-0.1177,-0.118,-0.1292,-0.1272,-0.1286,-0.1302,-0.1413,-0.1416,-0.1419,-0.1405,-0.1408,-0.1411,0,0,0,0,0,0,-0.0954,-0.0991,-0.0993,-0.1021,-0.1056,-0.1099,-0.1122,-0.1133,-0.1175,-0.1176,-0.1206,-0.1218,-0.1271,-0.1297,-0.1275,-0.1358,-0.135,-0.1356,-0.1335,-0.1338,-0.1341,-0.1293,-0.1272,0,0,0,0,0,-0.0954,-0.0976,-0.1012,-0.1036,-0.1052,-0.1086,-0.1108,-0.1124,-0.1164,-0.1181,-0.1214,-0.1255,-0.1297,-0.1324,-0.1366,-0.1421,-0.1391,-0.1439,-0.1442,-0.1444,-0.1416,-0.1408,-0.1406,-0.1431,-0.1431,-0.1431,0,0,-0.0952,-0.0979,-0.0989,-0.1034,-0.1062,-0.1088,-0.1098,-0.1137,-0.1155,-0.1187,-0.123,-0.1268,-0.1314,-0.1367,-0.1394,-0.139,-0.1418,-0.1448,-0.1449,-0.1419,-0.1411,-0.1408,-0.1405,-0.1434,-0.1433,-0.1433,0,0,-0.0964,-0.0987,-0.1006,-0.1035,-0.1079,-0.1102,-0.1111,-0.1157,-0.1174,-0.1224,-0.1246,-0.1289,-0.1362,-0.1391,-0.1415,-0.1462,-0.143,-0.1483,-0.146,-0.1454,-0.1451,-0.1447,-0.1379,-0.1369,-0.1486,-0.1486,-0.1486,0,-0.0954,-0.0984,-0.1021,-0.1048,-0.1063,-0.1103,-0.1118,-0.1153,-0.1211,-0.1216,-0.1235,-0.1312,-0.1365,-0.1403,-0.1425,-0.1464,-0.143,-0.1442,-0.1453,-0.1449,-0.1446,-0.1377,-0.1366,-0.1486,-0.1486,-0.1486,-0.1486,0,-0.0981,-0.1001,-0.1019,-0.1055,-0.1082,-0.1109,-0.1148,-0.1173,-0.1195,-0.1215,-0.1254,-0.1321,-0.1351,-0.1394,-0.1428,-0.144,-0.1411,-0.1451,-0.1432,-0.1441,-0.1369,-0.1358,-0.1486,-0.1486,-0.1486,-0.1486,0,0,-0.095,-0.1017,-0.1021,-0.1021,-0.1082,-0.1096,-0.1132,-0.1156,-0.114,-0.1212,-0.1187,-0.1297,-0.1306,-0.1334,-0.1384,-0.1397,-0.1361,-0.1413,-0.1413,-0.132,-0.1288,-0.1171,-0.1148,-0.14,-0.1399,-0.1398,-0.1235,0,-0.0947,-0.0977,-0.1021,-0.1033,-0.1039,-0.1079,-0.1093,-0.1121,-0.114,-0.113,-0.1193,-0.1195,-0.1293,-0.1286,-0.1327,-0.1338,-0.1336,-0.1397,-0.1313,-0.1309,-0.1186,-0.1134,-0.1057,-0.0897,-0.1225,-0.1223,-0.1222,0,-0.0942,-0.0961,-0.0969,-0.0983,-0.0987,-0.0998,-0.0986,-0.1005,-0.1017,-0.1022,-0.1046,-0.1074,-0.11,-0.1178,-0.1197,-0.1226,-0.1252,-0.1272,-0.1267,-0.1148,-0.1173,-0.095,-0.0865,-0.113,-0.1205,-0.1206,-0.1207,0,-0.0864,-0.0912,-0.0905,-0.0917,-0.0949,-0.094,-0.0948,-0.0958,-0.0914,-0.0922,-0.0851,-0.0936,-0.0884,-0.0979,-0.1024,-0.1104,-0.1001,-0.112,-0.1034,-0.1024,-0.0933,-0.0916,-0.1069,-0.1124,-0.1125,-0.1125,-0.1126,0,-0.0821,-0.0803,-0.0862,-0.0849,-0.0803,-0.0861,-0.0789,-0.0805,-0.0765,-0.0642,-0.0766,-0.0647,-0.0827,-0.0796,-0.0927,-0.0888,-0.0919,-0.0981,-0.0969,-0.0924,-0.091,-0.1116,-0.1264,-0.1119,-0.112,-0.1122,-0.1123,0,-0.0694,-0.0754,-0.0722,-0.0756,-0.0755,-0.0705,-0.0649,-0.0569,-0.0568,-0.0396,-0.0367,-0.0368,-0.0322,-0.0469,-0.0544,-0.067,-0.0795,-0.0707,-0.0601,-0.0581,-0.0792,-0.0939,-0.0947,-0.1037,-0.0599,-0.0595,-0.0592,0,-0.0617,-0.0598,-0.0611,-0.0559,-0.0557,-0.0504,-0.043,-0.045,-0.0332,-0.0181,-0.0045,0.0026,0.0144,0.0082,-0.0139,-0.0283,-0.0575,-0.033,-0.0505,-0.0744,-0.0903,-0.1018,-0.1106,-0.0372,-0.0367,-0.0363,-0.036,0,-0.0429,-0.0442,-0.0407,-0.033,-0.0258,-0.0169,-0.0068,0.0042,0.0097,0.0248,0.0493,0.0591,0.055,0.0468,0.0249,0.0089,-0.0478,-0.025,-0.0551,-0.0752,-0.0832,-0.0931,-0.0517,-0.0324,-0.0328,-0.033,-0.0332,-0.0334,-0.0237,-0.0173,-0.0136,-0.0053,0.004,0.0194,0.0292,0.044,0.0646,0.0892,0.094,0.1154,0.0953,0.0673,0.0384,-0.011,-0.019,-0.0324,-0.0475,-0.0565,-0.0682,-0.014,0.0081,0.008,0.0079,0.0078,0.0077,0,0.0014,0.0051,0.015,0.0262,0.0405,0.0372,0.0567,0.0677,0.0949,0.1223,0.1428,0.1576,0.1244,0.0796,0.0178,-0.0278,-0.052,-0.0565,-0.08,-0.0882,-0.0434,-0.0464,-0.0286,-0.0286,-0.0286,-0.0285,-0.0285,-0.0285,0.0163,0.0292,0.03,0.0561,0.0642,0.0813,0.0909,0.1087,0.128,0.167,0.1909,0.2063,0.1809,0.0517,-0.0466,-0.0714,-0.1137,-0.1118,-0.1376,-0.1201,-0.1195,-0.1191,-0.1261,-0.1253,-0.1254,-0.1774,-0.178,-0.1784]}],[{"header":{"parameterUnit":"m.s-1","parameterCategory":2,"la1":30.2991,"la2":30.254,"lo1":-89.0895,"lo2":-89.0444,"dy":0.0017,"dx":0.0017,"nx":28,"ny":28,"refTime":"2023-09-24T21:00:00:Z","depth":"2","parameterNumber":2,"parameterNumberName":"U-component_of_CURRENTS"},"data":[0,0,0,0,0,0,0,0,0,0,0,0,0,0,0,0,0,0,0,0,0,0,0,0,0,0,0,0,0,0,0,0,0,0,0,0,0,0,0,0,0,0,0,0,0,0,0,0,0,0,0,0,0,0,0,0,0,0,0.1725,0.1726,0,0.1768,0.1769,0.1769,0.1759,0.1759,0.1758,0.1758,0.1737,0.1737,0.1737,0,0,0,0,0,0,0,0,0,0,0,0,0,0.1614,0.1616,0.1725,0.1726,0.1727,0.1768,0.1769,0.1769,0.1759,0.1759,0.1758,0.1757,0.1737,0.1737,0.1737,0,0,0,0,0,0,0,0,0,0,0,0,0,0.1657,0.1616,0.1725,0.1729,0.173,0.1768,0.1769,0.1769,0.176,0.1759,0.1758,0.1757,0.1737,0.1737,0.1737,0.1754,0,0,0.1737,0.1737,0,0,0,0,0,0,0,0,0.1655,0.1661,0.1728,0.1729,0.173,0.176,0.1722,0.1762,0.176,0.1746,0.1758,0.1757,0.1741,0.1741,0.1748,0.1753,0.1752,0.1737,0.1737,0.1737,0.1737,0,0,0,0,0,0,0,0.1652,0.1659,0.174,0.1729,0.173,0.1721,0.1727,0.1729,0.1744,0.1747,0.1747,0.1756,0.1741,0.1748,0.1747,0.1752,0.1737,0.1737,0.1737,0.1737,0.1754,0.1755,0,0,0,0,0,0,0.1655,0.1657,0.1738,0.1741,0.1693,0.1724,0.173,0.1749,0.1746,0.1746,0.1757,0.1756,0.1749,0.1747,0.1746,0.1758,0.1737,0.1737,0.1737,0.1754,0.1754,0.1755,0,0,0,0,0,0,0.1652,0.1662,0.1737,0.1701,0.171,0.1728,0.1749,0.175,0.1758,0.1755,0.1752,0.1763,0.1748,0.1746,0.1752,0.1757,0.1737,0.1737,0.1753,0.1754,0.1755,0.1786,0,0,0,0,0,0,0.1649,0.1661,0.1675,0.1702,0.1713,0.1764,0.175,0.1752,0.1767,0.1765,0.176,0.1757,0.1747,0.1753,0.1752,0.1757,0.1737,0.1753,0.1754,0.1755,0.1784,0.1787,0.179,0,0,0,0,0,0.1645,0.167,0.1676,0.1685,0.1732,0.1765,0.177,0.1776,0.1768,0.1778,0.1772,0.1757,0.1757,0.1753,0.1753,0.1757,0.1752,0.1753,0.1754,0.1783,0.1787,0.179,0,0,0,0,0,0,0.1626,0.1672,0.1679,0.1716,0.174,0.1764,0.1779,0.1781,0.1786,0.1781,0.1769,0.1767,0.1771,0.1764,0.1759,0.1765,0.175,0.1751,0.1772,0.1776,0.1779,0.176,0.1737,0,0,0,0,0,0.1631,0.1664,0.1698,0.1727,0.1741,0.176,0.1773,0.1779,0.179,0.1791,0.1784,0.1777,0.1777,0.1776,0.1772,0.1782,0.1803,0.1783,0.1786,0.1788,0.1773,0.1788,0.1791,0.1759,0.1759,0.1759,0,0,0.1632,0.1663,0.168,0.1726,0.1745,0.1765,0.1765,0.1792,0.18,0.1788,0.1792,0.1789,0.1782,0.1788,0.1789,0.1782,0.1827,0.179,0.1792,0.1775,0.179,0.1793,0.1796,0.1759,0.1759,0.1759,0,0,0.1646,0.1679,0.1705,0.1726,0.176,0.1775,0.1783,0.1807,0.181,0.1821,0.181,0.1809,0.181,0.1804,0.1802,0.1821,0.1841,0.1823,0.1825,0.1841,0.1844,0.1846,0.1957,0.1969,0.1826,0.1826,0.1826,0,0.1642,0.1676,0.1715,0.1738,0.1747,0.1779,0.1789,0.181,0.1827,0.1823,0.1822,0.1815,0.1814,0.1814,0.182,0.1826,0.1869,0.1813,0.1845,0.1847,0.1849,0.1961,0.1974,0.1827,0.1827,0.1827,0.1827,0,0.167,0.1689,0.1707,0.1744,0.1764,0.1781,0.181,0.1825,0.183,0.1835,0.1834,0.1836,0.1826,0.1833,0.1833,0.1843,0.1888,0.1848,0.1836,0.1854,0.1973,0.1985,0.183,0.1829,0.1829,0.1828,0,0,0.1663,0.1714,0.1713,0.1714,0.176,0.1771,0.1801,0.1819,0.1827,0.1837,0.1838,0.1837,0.1833,0.183,0.1834,0.1847,0.193,0.1855,0.1855,0.1968,0.2045,0.2104,0.2124,0.1893,0.1894,0.1894,0.2153,0,0.1661,0.168,0.1714,0.1721,0.1725,0.1759,0.1776,0.1797,0.1824,0.1841,0.1841,0.1851,0.1837,0.1845,0.1851,0.191,0.1951,0.1869,0.2006,0.2012,0.2061,0.2133,0.1891,0.2099,0.2165,0.2167,0.2169,0,0.166,0.167,0.167,0.1682,0.1687,0.1701,0.1723,0.1747,0.1792,0.1811,0.1825,0.1846,0.1891,0.1859,0.1968,0.1921,0.1978,0.2019,0.2029,0.2067,0.209,0.2075,0.212,0.2189,0.2188,0.2186,0.2185,0,0.1603,0.1629,0.1618,0.1625,0.1657,0.1659,0.1678,0.1723,0.1766,0.1806,0.1867,0.188,0.1963,0.1974,0.2111,0.2032,0.2261,0.2161,0.2276,0.2286,0.2094,0.2085,0.2211,0.221,0.221,0.2209,0.2208,0,0.1571,0.1557,0.1588,0.158,0.1579,0.1606,0.1633,0.1662,0.1737,0.183,0.185,0.1969,0.1993,0.2143,0.2163,0.2327,0.232,0.2303,0.2341,0.2111,0.21,0.2155,0.2145,0.2219,0.2217,0.2215,0.2213,0,0.151,0.1526,0.1522,0.1544,0.1555,0.1552,0.1639,0.1687,0.1752,0.1891,0.1924,0.2092,0.2299,0.2381,0.2502,0.2471,0.2557,0.261,0.2405,0.2411,0.2552,0.2541,0.2712,0.2716,0.2719,0.2722,0.2724,0,0.1483,0.1474,0.1501,0.1531,0.1548,0.1572,0.1624,0.1681,0.1779,0.2004,0.2102,0.234,0.2514,0.2756,0.2731,0.2806,0.2798,0.2633,0.2383,0.2577,0.2597,0.258,0.2565,0.2186,0.2184,0.2182,0.2181,0,0.1451,0.1462,0.148,0.1532,0.158,0.1641,0.1729,0.1792,0.1928,0.2058,0.2307,0.2446,0.2696,0.2677,0.2792,0.2768,0.2574,0.26,0.2852,0.2098,0.2101,0.2114,0.2112,0.2164,0.2166,0.2167,0.2168,0.2168,0.1451,0.1461,0.1505,0.1549,0.1624,0.1711,0.1727,0.1869,0.1991,0.2122,0.2323,0.2421,0.2497,0.252,0.2522,0.2494,0.2615,0.2427,0.2423,0.2423,0.2316,0.2323,0.2416,0.2419,0.2422,0.2424,0.2426,0,0.1437,0.1473,0.1535,0.1584,0.1645,0.1693,0.1809,0.1805,0.1918,0.206,0.2164,0.2021,0.2071,0.2183,0.2097,0.2116,0.1978,0.2049,0.1814,0.1836,0.1854,0.1705,0.165,0.1648,0.1646,0.1644,0,0,0.1436,0.1465,0.1489,0.1571,0.1628,0.1656,0.1688,0.1714,0.1776,0.1754,0.1758,0.1859,0.2066,0.1777,0.1786,0.1718,0.1743,0.1655,0.2278,0.202,0.2034,0.2085,0.1888,0,0,0,0,0]},{"header":{"parameterUnit":"m.s-1","parameterCategory":2,"la1":30.2991,"la2":30.254,"lo1":-89.0895,"lo2":-89.0444,"dy":0.0017,"dx":0.0017,"nx":28,"ny":28,"refTime":"2023-09-24T21:00:00:Z","depth":"2","parameterNumber":3,"parameterNumberName":"V-component_of_CURRENTS"},"data":[0,0,0,0,0,0,0,0,0,0,0,0,0,0,0,0,0,0,0,0,0,0,0,0,0,0,0,0,0,0,0,0,0,0,0,0,0,0,0,0,0,0,0,0,0,0,0,0,0,0,0,0,0,0,0,0,0,0,-0.005,-0.0051,0,-0.0139,-0.014,-0.0141,-0.0216,-0.0217,-0.0218,-0.0218,-0.0327,-0.0329,-0.0331,0,0,0,0,0,0,0,0,0,0,0,0,0,0.0015,0.0015,-0.005,-0.0051,-0.0052,-0.0138,-0.014,-0.0141,-0.0216,-0.0217,-0.0218,-0.0219,-0.0326,-0.0328,-0.0331,0,0,0,0,0,0,0,0,0,0,0,0,0,-0.0037,0.0015,-0.0049,-0.0099,-0.0105,-0.0138,-0.014,-0.0141,-0.0216,-0.0217,-0.0218,-0.0219,-0.0325,-0.0328,-0.0331,-0.0328,0,0,-0.0341,-0.0343,0,0,0,0,0,0,0,0,-0.0034,-0.004,-0.0091,-0.0096,-0.0102,-0.0167,-0.0157,-0.0205,-0.0215,-0.0174,-0.0218,-0.022,-0.0274,-0.0281,-0.0296,-0.0333,-0.0337,-0.0342,-0.0343,-0.0345,-0.0346,0,0,0,0,0,0,0,-0.003,-0.0037,-0.0085,-0.0092,-0.0099,-0.0131,-0.0139,-0.0166,-0.0217,-0.0178,-0.0183,-0.0192,-0.0277,-0.0292,-0.0299,-0.0339,-0.0341,-0.0344,-0.0346,-0.0348,-0.0444,-0.0445,0,0,0,0,0,0,-0.0015,-0.0033,-0.0082,-0.0088,-0.007,-0.0131,-0.0141,-0.0145,-0.0216,-0.0228,-0.0191,-0.0195,-0.0286,-0.0295,-0.0303,-0.0349,-0.0345,-0.0348,-0.035,-0.0444,-0.0444,-0.0445,0,0,0,0,0,0,-0.0013,-0.0019,-0.0079,-0.0062,-0.0072,-0.013,-0.0136,-0.0146,-0.018,-0.0226,-0.0239,-0.0215,-0.0288,-0.0299,-0.0342,-0.0352,-0.0349,-0.0352,-0.0443,-0.0444,-0.0445,-0.0412,0,0,0,0,0,0,-0.0011,-0.0017,-0.002,-0.0061,-0.0073,-0.0098,-0.0135,-0.0147,-0.0182,-0.0189,-0.025,-0.0261,-0.0289,-0.0337,-0.0345,-0.0357,-0.0355,-0.0442,-0.0443,-0.0445,-0.0412,-0.0411,-0.0411,0,0,0,0,0,-0.0008,-0.0,-0.002,-0.0026,-0.0073,-0.0098,-0.0107,-0.0153,-0.0182,-0.0189,-0.0239,-0.026,-0.0351,-0.034,-0.0349,-0.0362,-0.0442,-0.0443,-0.0444,-0.0412,-0.0411,-0.0411,0,0,0,0,0,0,0.0027,-0.0008,-0.003,-0.0034,-0.0065,-0.0111,-0.0125,-0.0156,-0.0201,-0.0219,-0.0264,-0.0278,-0.0321,-0.0345,-0.0332,-0.0395,-0.0401,-0.0404,-0.0373,-0.0373,-0.0372,-0.0352,-0.0357,0,0,0,0,0,0.0035,0.0026,-0.001,-0.0018,-0.0032,-0.0082,-0.0101,-0.0134,-0.0176,-0.0199,-0.0246,-0.0295,-0.033,-0.0355,-0.0391,-0.042,-0.0436,-0.0437,-0.0436,-0.0435,-0.0427,-0.0465,-0.0467,-0.045,-0.045,-0.045,0,0,0.0045,0.0023,0.0018,-0.0012,-0.0045,-0.0053,-0.0097,-0.0129,-0.0145,-0.0202,-0.0248,-0.0295,-0.0338,-0.0376,-0.0397,-0.04,-0.0447,-0.0437,-0.0436,-0.0428,-0.0467,-0.0468,-0.0469,-0.0451,-0.0451,-0.045,0,0,0.007,0.0042,0.0045,0.0025,-0.0018,-0.0045,-0.0054,-0.0109,-0.0144,-0.019,-0.0235,-0.0284,-0.0348,-0.0376,-0.0397,-0.0412,-0.0443,-0.0436,-0.0417,-0.0455,-0.0456,-0.0458,-0.0469,-0.0472,-0.0436,-0.0436,-0.0436,0,0.0079,0.0081,0.0042,0.0042,0.0027,-0.0037,-0.0036,-0.0072,-0.0139,-0.0165,-0.0203,-0.0301,-0.0343,-0.0371,-0.0387,-0.0409,-0.0433,-0.0413,-0.0452,-0.0454,-0.0456,-0.0468,-0.0471,-0.0435,-0.0435,-0.0435,-0.0435,0,0.0114,0.0107,0.0106,0.0085,0.0067,0.0052,0.0005,-0.0031,-0.0091,-0.0133,-0.0198,-0.0263,-0.0321,-0.0346,-0.0376,-0.041,-0.0423,-0.0445,-0.0448,-0.0455,-0.0468,-0.0472,-0.0432,-0.0433,-0.0433,-0.0434,0,0,0.0142,0.0133,0.0127,0.0124,0.0085,0.0071,0.0047,0.0008,-0.0014,-0.0099,-0.013,-0.0212,-0.0268,-0.0295,-0.0344,-0.0381,-0.0419,-0.0424,-0.0427,-0.0424,-0.0492,-0.0466,-0.0468,-0.0459,-0.046,-0.046,-0.0491,0,0.0171,0.019,0.0173,0.0176,0.0178,0.0124,0.0112,0.0065,0.0005,-0.0043,-0.0123,-0.0177,-0.0241,-0.028,-0.0328,-0.0394,-0.0431,-0.0407,-0.0496,-0.0497,-0.0464,-0.0472,-0.0459,-0.0483,-0.0495,-0.0496,-0.0496,0,0.0203,0.021,0.0225,0.0217,0.0212,0.0198,0.0156,0.0135,0.0068,0.0022,-0.0049,-0.0118,-0.0185,-0.0245,-0.0354,-0.0343,-0.0418,-0.0469,-0.0472,-0.046,-0.0479,-0.0482,-0.049,-0.0503,-0.0502,-0.0502,-0.0501,0,0.0231,0.024,0.025,0.0246,0.0232,0.0213,0.0191,0.0139,0.0134,0.0052,0.0046,-0.0064,-0.0101,-0.0221,-0.0333,-0.0359,-0.0439,-0.0486,-0.0525,-0.0523,-0.0533,-0.053,-0.0566,-0.0566,-0.0566,-0.0566,-0.0566,0,0.0264,0.0264,0.0257,0.0257,0.0261,0.0234,0.0225,0.019,0.0166,0.0196,0.0072,0.0095,-0.0101,-0.0169,-0.0303,-0.0406,-0.0418,-0.0515,-0.0532,-0.052,-0.0516,-0.0553,-0.0552,-0.0567,-0.0567,-0.0566,-0.0566,0,0.0269,0.0276,0.0282,0.0272,0.027,0.0256,0.0259,0.0272,0.024,0.0281,0.0265,0.0206,0.0131,-0.0043,-0.0207,-0.0333,-0.0458,-0.0494,-0.0449,-0.0462,-0.0529,-0.0525,-0.0556,-0.0556,-0.0555,-0.0555,-0.0554,0,0.0264,0.0271,0.028,0.0295,0.0279,0.0275,0.0298,0.0291,0.0338,0.0387,0.0438,0.0373,0.0386,0.0156,-0.0114,-0.0342,-0.0382,-0.047,-0.0523,-0.0515,-0.053,-0.0527,-0.0524,-0.0523,-0.0523,-0.0522,-0.0522,0,0.0241,0.0241,0.0252,0.0301,0.0321,0.0378,0.0417,0.0488,0.0535,0.061,0.0745,0.0759,0.053,0.0301,-0.0048,-0.0201,-0.0443,-0.0465,-0.0477,-0.0518,-0.0484,-0.0498,-0.0497,-0.0518,-0.0518,-0.0518,-0.0519,-0.0519,0.0201,0.0219,0.0256,0.0311,0.0362,0.0494,0.0593,0.0696,0.0841,0.0975,0.0962,0.0974,0.0661,0.0222,-0.0051,-0.0368,-0.0376,-0.0499,-0.0501,-0.0504,-0.0484,-0.0451,-0.0473,-0.0473,-0.0474,-0.0474,-0.0474,0,0.0184,0.0233,0.0275,0.0379,0.0495,0.052,0.0701,0.0842,0.1085,0.1118,0.1204,0.0919,0.0643,0.0308,-0.0171,-0.0442,-0.0481,-0.05,-0.0515,-0.0517,-0.0519,-0.0502,-0.0495,-0.0496,-0.0496,-0.0497,0,0,0.0177,0.0247,0.0309,0.0501,0.0594,0.0804,0.0954,0.115,0.1235,0.1296,0.1246,0.1105,0.0716,0.0362,-0.0009,-0.0251,-0.0311,-0.0284,-0.0242,-0.0218,-0.0216,-0.0498,-0.047,0,0,0,0,0]}],[{"header":{"parameterUnit":"m.s-1","parameterCategory":2,"la1":30.2991,"la2":30.254,"lo1":-89.0895,"lo2":-89.0444,"dy":0.0017,"dx":0.0017,"nx":28,"ny":28,"refTime":"2023-09-24T21:00:00:Z","depth":"4","parameterNumber":2,"parameterNumberName":"U-component_of_CURRENTS"},"data":[0,0,0,0,0,0,0,0,0,0,0,0,0,0,0,0,0,0,0,0,0,0,0,0,0,0,0,0,0,0,0,0,0,0,0,0,0,0,0,0,0,0,0,0,0,0,0,0,0,0,0,0,0,0,0,0,0,0,0.0805,0.0806,0,0.0851,0.0852,0.0852,0.0892,0.0893,0.0894,0.0894,0.0976,0.0978,0.0979,0,0,0,0,0,0,0,0,0,0,0,0,0,0.0729,0.073,0.0805,0.0806,0.0807,0.0851,0.0852,0.0852,0.0892,0.0893,0.0894,0.0895,0.0976,0.0977,0.0979,0,0,0,0,0,0,0,0,0,0,0,0,0,0.0765,0.0731,0.0805,0.0834,0.0837,0.0851,0.0852,0.0852,0.0892,0.0893,0.0894,0.0895,0.0975,0.0977,0.098,0.0973,0,0,0.0987,0.0988,0,0,0,0,0,0,0,0,0.0763,0.0768,0.0829,0.0832,0.0836,0.0869,0.0855,0.0895,0.0892,0.0869,0.0894,0.0896,0.0945,0.0949,0.0952,0.0977,0.0981,0.0987,0.0988,0.0989,0.099,0,0,0,0,0,0,0,0.0761,0.0766,0.0821,0.083,0.0834,0.0837,0.0843,0.0862,0.0899,0.0871,0.0874,0.0883,0.0946,0.0949,0.0954,0.0982,0.0987,0.0989,0.099,0.0991,0.1104,0.1106,0,0,0,0,0,0,0.076,0.0764,0.082,0.0823,0.0804,0.0838,0.0845,0.0855,0.0898,0.0906,0.0882,0.0885,0.0945,0.0951,0.0957,0.1036,0.0989,0.0991,0.0993,0.1103,0.1105,0.1106,0,0,0,0,0,0,0.0758,0.0765,0.0818,0.0796,0.0803,0.0839,0.085,0.0856,0.0884,0.0907,0.0915,0.0907,0.0946,0.0954,0.1004,0.1037,0.0992,0.0994,0.1101,0.1103,0.1106,0.114,0,0,0,0,0,0,0.0756,0.0764,0.0776,0.0796,0.0805,0.0844,0.085,0.0856,0.0887,0.0892,0.0931,0.0938,0.0947,0.1,0.1006,0.1039,0.0996,0.1099,0.1102,0.1105,0.1137,0.1143,0.1149,0,0,0,0,0,0.0753,0.0763,0.0777,0.0784,0.0819,0.0845,0.085,0.0876,0.0887,0.0903,0.0936,0.0938,0.1024,0.1003,0.101,0.1044,0.1097,0.1101,0.1105,0.1134,0.1142,0.1149,0,0,0,0,0,0,0.0736,0.0768,0.0784,0.0804,0.0832,0.0853,0.087,0.0887,0.0922,0.0935,0.0954,0.0964,0.1022,0.1028,0.1004,0.1087,0.1063,0.1068,0.1083,0.1091,0.1096,0.1103,0.0998,0,0,0,0,0,0.0738,0.0757,0.0788,0.0807,0.0822,0.085,0.0866,0.0887,0.0917,0.0935,0.0966,0.1001,0.1037,0.106,0.1089,0.1129,0.1136,0.1157,0.1163,0.1168,0.118,0.1209,0.1219,0.1118,0.1118,0.1118,0,0,0.0736,0.0758,0.0769,0.0805,0.0828,0.0855,0.0862,0.0896,0.0927,0.0938,0.0996,0.1025,0.1053,0.1104,0.113,0.1116,0.1202,0.1173,0.1177,0.1186,0.1214,0.1223,0.1232,0.1121,0.1121,0.112,0,0,0.0737,0.0764,0.0779,0.0807,0.0849,0.087,0.0886,0.0926,0.0955,0.1006,0.1029,0.1076,0.1128,0.1156,0.1174,0.1229,0.1234,0.1247,0.1283,0.1311,0.1319,0.1327,0.1351,0.136,0.1249,0.1249,0.1249,0,0.0736,0.0762,0.0788,0.0813,0.0843,0.088,0.091,0.094,0.0996,0.1026,0.1034,0.113,0.115,0.1213,0.124,0.1243,0.1262,0.1249,0.1318,0.1325,0.1332,0.1355,0.1365,0.1251,0.1251,0.125,0.125,0,0.0743,0.0778,0.0791,0.0839,0.0872,0.0906,0.0953,0.0995,0.1036,0.1071,0.1151,0.1185,0.1242,0.126,0.1269,0.1338,0.1338,0.1321,0.1295,0.1344,0.1365,0.1375,0.1254,0.1253,0.1253,0.1252,0,0,0.0714,0.0783,0.0792,0.0824,0.0894,0.0918,0.0978,0.1041,0.1085,0.1148,0.1205,0.1276,0.1306,0.133,0.1353,0.1384,0.1446,0.1384,0.1384,0.14,0.152,0.1444,0.1447,0.1446,0.1448,0.145,0.1515,0,0.0719,0.0767,0.0806,0.0865,0.0898,0.0958,0.1009,0.1073,0.1131,0.1195,0.1249,0.1315,0.1329,0.1367,0.1404,0.1449,0.1474,0.1431,0.1477,0.1478,0.1399,0.1456,0.1455,0.1522,0.1524,0.1526,0.1527,0,0.0713,0.0753,0.0806,0.0888,0.0909,0.095,0.1043,0.1094,0.1187,0.1238,0.1316,0.1359,0.1447,0.1427,0.1532,0.1512,0.1522,0.1538,0.154,0.1465,0.142,0.1464,0.1543,0.1542,0.1541,0.154,0.1539,0,0.0673,0.0753,0.0797,0.0826,0.0919,0.096,0.1015,0.111,0.1171,0.1271,0.1335,0.1423,0.1493,0.1531,0.1582,0.1571,0.1667,0.1642,0.1577,0.1572,0.1602,0.1594,0.1682,0.1682,0.1682,0.1682,0.1682,0,0.0658,0.0694,0.0784,0.0807,0.0867,0.0942,0.1016,0.1084,0.1194,0.1269,0.136,0.1432,0.1527,0.159,0.1604,0.1634,0.1686,0.1601,0.1589,0.1616,0.1608,0.1609,0.1599,0.1684,0.1684,0.1683,0.1683,0,0.06,0.0661,0.0713,0.0812,0.0848,0.0889,0.1015,0.1071,0.119,0.1291,0.1333,0.1477,0.1575,0.1636,0.1703,0.167,0.1685,0.1661,0.1698,0.1685,0.1567,0.1559,0.1619,0.1617,0.1615,0.1614,0.1613,0,0.0571,0.0592,0.0696,0.0734,0.0781,0.086,0.0918,0.1048,0.1112,0.1304,0.1343,0.1489,0.1565,0.1612,0.1672,0.1697,0.1666,0.1658,0.1608,0.1581,0.1564,0.1558,0.1553,0.161,0.161,0.1609,0.1609,0,0.0513,0.0554,0.0598,0.0677,0.0742,0.0807,0.0899,0.0948,0.11,0.1223,0.1332,0.1402,0.1509,0.157,0.1598,0.1602,0.1664,0.164,0.1643,0.1596,0.157,0.1554,0.155,0.1603,0.1604,0.1604,0.1605,0,0.0466,0.0483,0.055,0.0616,0.0688,0.074,0.0799,0.0892,0.0979,0.119,0.1213,0.1368,0.1484,0.152,0.1542,0.1557,0.1542,0.1483,0.1494,0.1501,0.1434,0.1382,0.1362,0,0,0,0,0,0.042,0.0442,0.0492,0.0563,0.063,0.0677,0.0785,0.0851,0.0998,0.1045,0.1133,0.1219,0.1317,0.139,0.1386,0.1496,0.1538,0.1485,0.1471,0.157,0.1577,0.151,0,0,0,0,0,0,0.0392,0.0431,0.0466,0.0504,0.0543,0.0612,0.0676,0.0778,0.081,0.0964,0.1019,0.114,0.1242,0.1302,0.1359,0.1382,0.1348,0.1577,0.1574,0.1567,0.1573,0.1578,0.1512,0,0,0,0,0]},{"header":{"parameterUnit":"m.s-1","parameterCategory":2,"la1":30.2991,"la2":30.254,"lo1":-89.0895,"lo2":-89.0444,"dy":0.0017,"dx":0.0017,"nx":28,"ny":28,"refTime":"2023-09-24T21:00:00:Z","depth":"4","parameterNumber":3,"parameterNumberName":"V-component_of_CURRENTS"},"data":[0,0,0,0,0,0,0,0,0,0,0,0,0,0,0,0,0,0,0,0,0,0,0,0,0,0,0,0,0,0,0,0,0,0,0,0,0,0,0,0,0,0,0,0,0,0,0,0,0,0,0,0,0,0,0,0,0,0,0.0457,0.0457,0,0.0451,0.0451,0.045,0.043,0.0429,0.0429,0.0429,0.0393,0.0392,0.0392,0,0,0,0,0,0,0,0,0,0,0,0,0,0.042,0.0421,0.0457,0.0457,0.0457,0.0451,0.0451,0.045,0.043,0.0429,0.0429,0.0428,0.0393,0.0392,0.0392,0,0,0,0,0,0,0,0,0,0,0,0,0,0.0427,0.0422,0.0457,0.0446,0.0445,0.0451,0.0451,0.045,0.043,0.0429,0.0429,0.0428,0.0393,0.0392,0.0392,0.0399,0,0,0.0389,0.0389,0,0,0,0,0,0,0,0,0.0427,0.0428,0.0448,0.0447,0.0446,0.0441,0.0425,0.0432,0.043,0.0435,0.0429,0.0428,0.0407,0.0405,0.0405,0.0397,0.0395,0.0389,0.0388,0.0388,0.0388,0,0,0,0,0,0,0,0.0426,0.0428,0.0454,0.0448,0.0447,0.0431,0.0432,0.0426,0.0424,0.0435,0.0433,0.0434,0.0406,0.0406,0.0404,0.0395,0.0389,0.0388,0.0388,0.0387,0.0392,0.0393,0,0,0,0,0,0,0.0431,0.0428,0.0454,0.0454,0.0435,0.0433,0.0433,0.0443,0.0424,0.0421,0.0434,0.0433,0.0407,0.0405,0.0402,0.0422,0.0388,0.0387,0.0387,0.0391,0.0392,0.0393,0,0,0,0,0,0,0.043,0.0434,0.0454,0.044,0.0442,0.0434,0.0445,0.0443,0.0447,0.0424,0.0421,0.0441,0.0407,0.0404,0.041,0.0419,0.0387,0.0386,0.0391,0.0392,0.0393,0.0452,0,0,0,0,0,0,0.0429,0.0434,0.0448,0.0441,0.0443,0.0469,0.0445,0.0443,0.0448,0.0446,0.0429,0.0425,0.0406,0.0412,0.0409,0.0418,0.0385,0.039,0.0391,0.0392,0.0449,0.0455,0.046,0,0,0,0,0,0.0428,0.0455,0.0449,0.0453,0.0462,0.047,0.047,0.0461,0.0449,0.046,0.0449,0.0425,0.0417,0.0412,0.0409,0.0417,0.0389,0.0391,0.0392,0.0447,0.0454,0.046,0,0,0,0,0,0,0.045,0.0456,0.0449,0.0477,0.0476,0.0467,0.0482,0.0469,0.0469,0.0469,0.0441,0.0437,0.0444,0.0425,0.0421,0.0421,0.0396,0.0397,0.0439,0.0445,0.045,0.0437,0.0385,0,0,0,0,0,0.0461,0.0484,0.0478,0.0502,0.0505,0.0493,0.0497,0.0489,0.0485,0.0485,0.0472,0.0458,0.0447,0.0443,0.0434,0.0441,0.0394,0.0441,0.0446,0.0451,0.0438,0.0389,0.0388,0.0398,0.0398,0.0398,0,0,0.0478,0.0484,0.0497,0.0508,0.0509,0.0519,0.0495,0.0509,0.0514,0.0481,0.0494,0.048,0.0454,0.046,0.046,0.0446,0.0425,0.0453,0.0457,0.0441,0.039,0.0389,0.0388,0.0399,0.0398,0.0398,0,0,0.0516,0.0527,0.0552,0.0554,0.0559,0.0552,0.0558,0.0554,0.0551,0.056,0.0534,0.0524,0.0519,0.0496,0.0483,0.0511,0.0456,0.0512,0.0526,0.048,0.0479,0.0476,0.0417,0.0409,0.0513,0.0513,0.0513,0,0.0531,0.0558,0.056,0.0577,0.0581,0.0568,0.0583,0.0584,0.0581,0.0574,0.0573,0.0544,0.0529,0.0511,0.0523,0.0521,0.0481,0.0507,0.0486,0.0483,0.048,0.0419,0.041,0.0516,0.0516,0.0515,0.0515,0,0.0575,0.0595,0.0613,0.0627,0.0635,0.065,0.0643,0.065,0.0643,0.0629,0.0618,0.0597,0.057,0.057,0.0556,0.053,0.0505,0.05,0.0469,0.0482,0.0418,0.0407,0.052,0.0519,0.0518,0.0518,0,0,0.0604,0.0636,0.0641,0.0646,0.0658,0.0665,0.0681,0.0677,0.0673,0.0669,0.065,0.0638,0.0613,0.0596,0.0574,0.0537,0.049,0.0515,0.0511,0.0453,0.0374,0.0328,0.0311,0.0484,0.0483,0.0482,0.0338,0,0.063,0.0666,0.0677,0.0704,0.0714,0.0709,0.0722,0.0717,0.0707,0.0691,0.0654,0.0636,0.0627,0.0613,0.0577,0.0512,0.0463,0.0527,0.0371,0.0366,0.0321,0.0298,0.0477,0.033,0.0327,0.0325,0.0324,0,0.0656,0.0675,0.0707,0.0723,0.0729,0.0747,0.0747,0.0755,0.0731,0.072,0.069,0.0656,0.0605,0.0595,0.0478,0.0521,0.0448,0.0394,0.0387,0.031,0.0298,0.0312,0.0303,0.0305,0.0307,0.0308,0.0309,0,0.065,0.069,0.0713,0.072,0.0744,0.0757,0.0769,0.0762,0.0763,0.073,0.0715,0.0654,0.0612,0.0526,0.0419,0.0446,0.0273,0.0295,0.0175,0.0171,0.023,0.0234,0.0192,0.0192,0.0192,0.0193,0.0193,0,0.0652,0.067,0.0717,0.0725,0.0752,0.0766,0.0784,0.0784,0.0778,0.0766,0.0728,0.0687,0.0593,0.0488,0.0401,0.0242,0.0251,0.0156,0.0126,0.026,0.0268,0.0222,0.0227,0.0187,0.0189,0.019,0.0191,0,0.0626,0.066,0.0688,0.0731,0.0748,0.0764,0.0803,0.081,0.0807,0.0785,0.0773,0.0695,0.0557,0.0439,0.0275,0.0206,0.0068,0.0005,0.0131,0.0115,0.0003,0.0013,-0.0135,-0.0138,-0.0141,-0.0143,-0.0145,0,0.0609,0.0624,0.0688,0.0712,0.0735,0.077,0.0794,0.0819,0.0824,0.0779,0.0759,0.0631,0.056,0.0291,0.0176,-0.0024,-0.0042,-0.0114,-0.0032,-0.002,-0.0034,-0.0019,-0.0006,-0.0149,-0.0149,-0.015,-0.0151,0,0.057,0.0605,0.0631,0.0686,0.0727,0.0765,0.0801,0.0808,0.0818,0.0817,0.0723,0.0595,0.0424,0.0258,0.0086,-0.0044,-0.0059,-0.014,-0.0134,-0.0058,-0.0037,-0.0046,-0.003,-0.0159,-0.0158,-0.0157,-0.0157,0,0.054,0.0556,0.0605,0.0647,0.0703,0.0741,0.0769,0.0771,0.0778,0.0747,0.0702,0.0547,0.0465,0.0241,0.0087,-0.0054,-0.0067,-0.0082,-0.0079,-0.0071,0.0002,0.0041,-0.0104,0,0,0,0,0,0.0501,0.0521,0.056,0.061,0.0669,0.0702,0.0761,0.0787,0.0802,0.0736,0.0726,0.0569,0.0335,0.0236,0.0084,0.0044,-0.0093,-0.0138,-0.0108,-0.0208,-0.0198,-0.0126,0,0,0,0,0,0,0.0475,0.0511,0.0541,0.0574,0.0602,0.0661,0.0704,0.0721,0.0691,0.0688,0.0567,0.0522,0.0297,0.0409,0.0072,0.003,0.0028,-0.024,-0.0243,-0.0213,-0.0204,-0.0196,-0.0119,0,0,0,0,0]}]]